Location: Bruchsal
(49.1250°N, 8.5844°E)
Time: 07:00:40
(UTC+01:00)

ISS - Visible Passes

Search period start: 09 December 2023 00:00
Search period end: 19 December 2023 00:00
Orbit: 415 x 417 km, 51.6° (Epoch: 09 December)

Date Brightness Start Highest point End Pass type
(mag) Time Alt. Az. Time Alt. Az. Time Alt. Az.
15 Dec -0.2 06:58:52 10° SSE 06:59:50 11° SE 07:00:48 10° ESE visible
17 Dec -1.3 06:55:48 10° SSW 06:58:32 24° SE 07:01:18 10° E visible
18 Dec -0.8 06:07:47 10° S 06:09:53 16° SE 06:11:59 10° E visible
